Regional Weather Roundup
Issued by NWS

Home | Current Version | Previous Version | Graphics & Text | Print | Product List | Glossary On
Versions: 1 2 3 4 5 6 7 8 9 10 11 12 13 14 15 16 17 18 19 20 21 22 23 24 25 26 27 28 29 30 31 32 33 34 35 36 37 38 39 40 41 42 43 44 45 46 47 48 49 50
000
ASUS43 KDMX 220901
RWRIA

WEATHER ROUNDUP FOR IOWA
NATIONAL WEATHER SERVICE DES MOINES IA
300 AM CST SUN JAN 22 2017

NOTE: "FAIR" INDICATES FEW OR NO CLOUDS BELOW 12,000 FEET WITH NO
SIGNIFICANT WEATHER AND/OR OBSTRUCTIONS TO VISIBILITY.

* - THESE STATIONS ARE NOT NWS STATIONS...THUS NOT UNDER NWS
QUALITY CONTROL.  THEY ALSO DO NOT REPORT WEATHER SUCH
AS PRECIPITATION OR FOG.

IAZ001>003-012>014-020>022-031>034-043>046-221000-
   NORTHWEST IOWA

CITY           SKY/WX    TMP DP  RH WIND       PRES   REMARKS
CARROLL *      CLOUDY    32  32 100 NW13      29.61R WCI  22
CHEROKEE *     CLOUDY    32  31  98 NW7       29.61S WCI  26
DENISON *      CLOUDY    30  30 100 NW7       29.61R WCI  23
LE MARS *      CLOUDY    32  30  93 NW8       29.64R WCI  25
ORANGE CITY *  CLOUDY    32  30  93 NW12      29.62R WCI  23
SHELDON *      CLOUDY    32  32 100 NW12      29.59S WCI  23
SIOUX CITY     CLOUDY    33  30  88 NW12      29.63S WCI  24
SPENCER          N/A    N/A N/A N/A MISG      29.59R
STORM LAKE *   CLOUDY    32  30  93 NW12      29.60R WCI  23
$$

IAZ055>058-069>071-079>083-090>094-221000-
   SOUTHWEST IOWA

CITY           SKY/WX    TMP DP  RH WIND       PRES   REMARKS
ATLANTIC *     FOG       30  30 100 N5        29.61R VSB<1/4 WCI  25
AUDUBON *      CLEAR     25  25 100 CALM      29.62R FOG
CLARINDA *     CLOUDY    30  30 100 N5        29.61R FOG     WCI  25
COUNCIL BLFS * CLEAR     30  30 100 N7        29.62R WCI  23
CRESTON *      FOG       34  34 100 N10       29.59R VSB 1/4 WCI  26
HARLAN  *      CLEAR     30  30 100 N5        29.65R WCI  25
LAMONI         FOG       30  30 100 SE3       29.57R VSB 1/4
RED OAK *      PTCLDY    32  32 100 N9        29.60S WCI  24
SHENANDOAH *   CLOUDY    28  28 100 N5        29.61R WCI  23
$$

IAZ047>049-059>061-072>074-084-221000-
   CENTRAL IOWA

CITY           SKY/WX    TMP DP  RH WIND       PRES   REMARKS
AMES           CLOUDY    33  33 100 NW3       29.61R FOG
ANKENY *       FOG       34  34 100 N7        29.61S VSB<1/4 WCI  28
BOONE *        MOCLDY    30  32 100 N6        29.59R WCI  24
CHARITON *     FOG       28  28 100 W7        29.58R VSB 1/4 WCI  21
DES MOINES     FOG       33  33 100 N7        29.59S VSB 1/4 WCI  27
GRINNELL*      FOG       29  29  99 NW6       29.57S VSB<1/4 WCI  23
KNOXVILLE *    FOG       28  28 100 S6        29.57R VSB<1/4 WCI  22
MARSHALLTOWN   FOG       34  34 100 NW6       29.59R VSB 1/2 WCI  29
NEWTON *       FOG       32  32 100 N8        29.57R VSB 1/4 WCI  25
PELLA *        SNOW      30  30  99 CALM      29.59R VSB<1/4
PERRY *          N/A     31  31  99 NW5       29.61R FOG     WCI  27
$$

IAZ004>006-015-016-023>025-035-036-221000-
   NORTH CENTRAL IOWA

CITY           SKY/WX    TMP DP  RH WIND       PRES   REMARKS
ALGONA *       CLOUDY    34  34 100 NW8       29.58R FOG     WCI  27
CLARION *      CLOUDY    32  32 100 NW9       29.58R WCI  24
ESTHERVILLE    CLOUDY    32  32 100 NW10      29.58R FOG     WCI  24
FORT DODGE *   CLOUDY    32  28  86 W5        29.59R WCI  27
MASON CITY     FOG       32  32 100 NW5       29.58R VSB 1/2 WCI  27
FOREST CITY *  FOG       32  32 100 NW8       29.57R VSB 1/2 WCI  25
WEBSTER CITY * CLOUDY    32 N/A N/A NW6       29.57R WCI  26
IOWA FALLS *   CLOUDY    33  32  97 W8        29.59R WCI  26
$$

IAZ007>011-017>019-026>030-037>042-050>054-066-221000-
   NORTHEAST IOWA

CITY           SKY/WX    TMP DP  RH WIND       PRES   REMARKS
CEDAR RAPIDS   FOG       29  28  96 CALM      29.56S VSB 1/2
CHARLES CITY * CLOUDY    34  34 100 W5        29.57R WCI  30
CLINTON *      CLEAR     33  33 100 CALM      29.59S FOG
DECORAH *      MOCLDY    36  34  93 CALM      29.55S FOG
DUBUQUE        FOG       33  33 100 W3        29.57S VSB<1/4
MONTICELLO *   FOG       30  30 100 NE5       29.57F VSB<1/4 WCI  25
OELWEIN *      FOG       32  32 100 SE5       29.57S VSB 1/4 WCI  27
WATERLOO       CLOUDY    33  32  96 W6        29.58R FOG     WCI  28
$$

IAZ064-065-067-068-078-221000-
   EAST CENTRAL IOWA

CITY           SKY/WX    TMP DP  RH WIND       PRES   REMARKS
DAVENPORT      FOG       33  32  96 CALM      29.58F VSB 3/4
IOWA CITY      FOG       30  28  92 CALM      29.60R VSB 1/4
MUSCATINE *    FOG       30  28  93 CALM      29.59F VSB<1/4
QUAD CITIES    PTCLDY    32  29  88 CALM      29.58F FOG
$$

IAZ062-063-075>077-085>089-095>099-221000-
   SOUTHEAST IOWA

CITY           SKY/WX    TMP DP  RH WIND       PRES   REMARKS
BURLINGTON     CLOUDY    37  37 100 NE6       29.57R FOG     WCI  32
FAIRFIELD *    FOG       28  28 100 CALM      29.58S VSB<1/4
FORT MADISON * FOG       36  36 100 NE3       29.58S VSB 1/4
KEOKUK *       CLOUDY    37 N/A N/A NE3       29.57R FOG
OSKALOOSA *    FOG       28  28 100 S5        29.59R VSB 1/4 WCI  23
CENTERVILLE *  FOG       30  30 100 CALM      29.60R VSB 1/2
OTTUMWA        FOG       29  28  96 S3        29.58R VSB 1/4
WASHINGTON *   FOG       28  30 100 CALM      29.59F VSB<1/4
$$

ABBREVIATIONS USED IN REMARKS
   TC - TEMPERATURES IN CELSIUS
  WCI - WIND CHILL INDEX
   HX - HEAT INDEX
  VSB - VISIBILITY
$$




USA.gov is the U.S. government's official web portal to all federal, state and local government web resources and services.